Time,TemperatureF,DewpointF,PressureIn,WindDirection,WindDirectionDegrees,WindSpeedMPH,WindSpeedGustMPH,Humidity,HourlyPrecipIn,Conditions,Clouds,dailyrainin,SolarRadiationWatts/m^2,SoftwareType,DateUTC
2013-07-30 00:04:00,61.5,60.0,30.13,SSE,148,0.0,0.0,93,0.00,,,0.00,0,weatherlink.com 1.10,2013-07-30 04:04:00,
2013-07-30 00:19:00,60.8,59.0,30.13,SSE,148,0.0,0.0,93,0.00,,,0.00,0,weatherlink.com 1.10,2013-07-30 04:19:00,
2013-07-30 00:34:00,60.4,59.0,30.14,SSE,148,0.0,0.0,94,0.00,,,0.00,0,weatherlink.com 1.10,2013-07-30 04:34:00,
2013-07-30 00:49:00,60.0,58.0,30.14,SSE,148,0.0,0.0,94,0.00,,,0.00,0,weatherlink.com 1.10,2013-07-30 04:49:00,
2013-07-30 01:04:00,59.6,58.0,30.14,SSE,148,0.0,0.0,95,0.00,,,0.00,0,weatherlink.com 1.10,2013-07-30 05:04:00,
2013-07-30 01:19:00,59.6,58.0,30.13,SSE,148,0.0,1.0,94,0.00,,,0.00,0,weatherlink.com 1.10,2013-07-30 05:19:00,
2013-07-30 01:34:00,58.7,57.0,30.13,SSE,148,0.0,0.0,95,0.00,,,0.00,0,weatherlink.com 1.10,2013-07-30 05:34:00,
2013-07-30 01:49:00,58.5,57.0,30.12,SSE,148,0.0,0.0,96,0.00,,,0.00,0,weatherlink.com 1.10,2013-07-30 05:49:00,
2013-07-30 02:04:00,58.2,57.0,30.12,SSE,148,0.0,0.0,96,0.00,,,0.00,0,weatherlink.com 1.10,2013-07-30 06:04:00,
2013-07-30 02:19:00,57.9,57.0,30.12,SSE,148,0.0,0.0,96,0.00,,,0.00,0,weatherlink.com 1.10,2013-07-30 06:19:00,
2013-07-30 02:34:00,57.7,57.0,30.12,SSE,148,0.0,0.0,96,0.00,,,0.00,0,weatherlink.com 1.10,2013-07-30 06:34:00,
2013-07-30 02:49:00,57.6,57.0,30.12,SSE,148,0.0,0.0,97,0.00,,,0.00,0,weatherlink.com 1.10,2013-07-30 06:49:00,
2013-07-30 03:04:00,57.3,56.0,30.12,SSE,148,0.0,1.0,96,0.00,,,0.00,0,weatherlink.com 1.10,2013-07-30 07:04:00,
2013-07-30 03:19:00,57.5,57.0,30.12,SSE,148,0.0,0.0,97,0.00,,,0.00,0,weatherlink.com 1.10,2013-07-30 07:19:00,
2013-07-30 03:34:00,57.1,56.0,30.12,SSE,148,0.0,0.0,96,0.00,,,0.00,0,weatherlink.com 1.10,2013-07-30 07:34:00,
2013-07-30 03:49:00,56.8,56.0,30.12,SSE,148,0.0,0.0,97,0.00,,,0.00,0,weatherlink.com 1.10,2013-07-30 07:49:00,
2013-07-30 04:04:00,56.4,56.0,30.12,SSE,148,0.0,0.0,97,0.00,,,0.00,0,weatherlink.com 1.10,2013-07-30 08:04:00,
2013-07-30 04:19:00,56.2,55.0,30.13,SSE,148,0.0,0.0,97,0.00,,,0.00,0,weatherlink.com 1.10,2013-07-30 08:19:00,
2013-07-30 04:34:00,56.2,55.0,30.13,SSE,148,0.0,0.0,97,0.00,,,0.00,0,weatherlink.com 1.10,2013-07-30 08:34:00,
2013-07-30 04:49:00,55.8,55.0,30.13,SSE,148,0.0,0.0,97,0.00,,,0.00,0,weatherlink.com 1.10,2013-07-30 08:49:00,
2013-07-30 05:05:00,55.4,55.0,30.13,SSE,148,0.0,0.0,97,0.00,,,0.00,0,weatherlink.com 1.10,2013-07-30 09:05:00,
2013-07-30 05:20:00,55.3,55.0,30.14,SSE,148,0.0,0.0,98,0.00,,,0.00,0,weatherlink.com 1.10,2013-07-30 09:20:00,
2013-07-30 05:35:00,55.3,55.0,30.14,SSE,148,0.0,1.0,98,0.00,,,0.00,0,weatherlink.com 1.10,2013-07-30 09:35:00,
2013-07-30 05:50:00,55.3,55.0,30.14,SSE,148,0.0,0.0,98,0.00,,,0.00,0,weatherlink.com 1.10,2013-07-30 09:50:00,
2013-07-30 06:05:00,55.3,55.0,30.14,SSE,148,0.0,0.0,98,0.00,,,0.00,0,weatherlink.com 1.10,2013-07-30 10:05:00,
2013-07-30 06:20:00,55.4,55.0,30.15,SSE,148,0.0,0.0,98,0.00,,,0.00,0,weatherlink.com 1.10,2013-07-30 10:20:00,
2013-07-30 06:35:00,55.5,55.0,30.15,SSE,148,0.0,0.0,98,0.00,,,0.00,0,weatherlink.com 1.10,2013-07-30 10:35:00,
2013-07-30 06:50:00,55.6,55.0,30.16,SSE,148,0.0,0.0,99,0.00,,,0.00,0,weatherlink.com 1.10,2013-07-30 10:50:00,
2013-07-30 07:05:00,55.8,56.0,30.16,SSE,148,0.0,0.0,99,0.00,,,0.00,14,weatherlink.com 1.10,2013-07-30 11:05:00,
2013-07-30 07:20:00,56.1,56.0,30.16,SSE,148,0.0,0.0,99,0.00,,,0.00,23,weatherlink.com 1.10,2013-07-30 11:20:00,
2013-07-30 07:35:00,56.3,56.0,30.16,SSE,148,0.0,0.0,99,0.00,,,0.00,32,weatherlink.com 1.10,2013-07-30 11:35:00,
2013-07-30 07:50:00,56.8,57.0,30.17,SSE,148,0.0,0.0,99,0.00,,,0.00,37,weatherlink.com 1.10,2013-07-30 11:50:00,
2013-07-30 08:05:00,57.1,57.0,30.17,SSE,148,0.0,1.0,99,0.00,,,0.00,30,weatherlink.com 1.10,2013-07-30 12:05:00,
2013-07-30 08:20:00,57.3,57.0,30.17,SSE,148,1.0,1.0,99,0.00,,,0.00,19,weatherlink.com 1.10,2013-07-30 12:20:00,
2013-07-30 08:35:00,57.2,57.0,30.17,SSE,148,0.0,1.0,99,0.00,,,0.00,25,weatherlink.com 1.10,2013-07-30 12:35:00,
2013-07-30 08:50:00,57.6,57.0,30.18,SSE,148,0.0,0.0,99,0.00,,,0.00,28,weatherlink.com 1.10,2013-07-30 12:50:00,
2013-07-30 09:05:00,58.3,58.0,30.18,SSE,148,0.0,0.0,99,0.00,,,0.00,32,weatherlink.com 1.10,2013-07-30 13:05:00,
2013-07-30 09:20:00,59.3,59.0,30.18,SSE,148,0.0,0.0,99,0.00,,,0.00,54,weatherlink.com 1.10,2013-07-30 13:20:00,
2013-07-30 09:35:00,60.6,60.0,30.18,SSE,148,0.0,0.0,99,0.00,,,0.00,84,weatherlink.com 1.10,2013-07-30 13:35:00,
2013-07-30 09:50:00,62.0,62.0,30.18,South,175,0.0,2.0,100,0.00,,,0.00,76,weatherlink.com 1.10,2013-07-30 13:50:00,
2013-07-30 10:05:00,62.8,63.0,30.17,South,175,0.0,0.0,100,0.00,,,0.00,53,weatherlink.com 1.10,2013-07-30 14:05:00,
2013-07-30 10:20:00,63.8,64.0,30.16,South,175,0.0,0.0,100,0.00,,,0.00,72,weatherlink.com 1.10,2013-07-30 14:20:00,
2013-07-30 10:35:00,64.9,64.0,30.16,South,175,0.0,1.0,97,0.00,,,0.00,109,weatherlink.com 1.10,2013-07-30 14:35:00,
2013-07-30 10:50:00,66.7,65.0,30.15,South,175,0.0,0.0,93,0.00,,,0.00,144,weatherlink.com 1.10,2013-07-30 14:50:00,
2013-07-30 11:05:00,68.4,66.0,30.15,South,175,0.0,0.0,91,0.00,,,0.00,174,weatherlink.com 1.10,2013-07-30 15:05:00,
2013-07-30 11:20:00,69.8,67.0,30.15,South,175,0.0,0.0,90,0.00,,,0.00,167,weatherlink.com 1.10,2013-07-30 15:20:00,
2013-07-30 11:35:00,71.1,67.0,30.15,South,175,0.0,0.0,88,0.00,,,0.00,153,weatherlink.com 1.10,2013-07-30 15:35:00,
2013-07-30 11:50:00,72.3,67.0,30.15,South,175,0.0,1.0,83,0.00,,,0.00,156,weatherlink.com 1.10,2013-07-30 15:50:00,
2013-07-30 12:06:00,73.7,68.0,30.14,SW,226,0.0,2.0,81,0.00,,,0.00,130,weatherlink.com 1.10,2013-07-30 16:06:00,
2013-07-30 12:21:00,74.1,68.0,30.14,SW,226,0.0,0.0,82,0.00,,,0.00,179,weatherlink.com 1.10,2013-07-30 16:21:00,
2013-07-30 12:36:00,74.8,66.0,30.14,SW,226,1.0,1.0,75,0.00,,,0.00,712,weatherlink.com 1.10,2013-07-30 16:36:00,
2013-07-30 12:51:00,75.9,66.0,30.14,SW,226,0.0,0.0,71,0.00,,,0.00,758,weatherlink.com 1.10,2013-07-30 16:51:00,
2013-07-30 13:06:00,77.8,60.0,30.14,West,268,0.0,3.0,55,0.00,,,0.00,696,weatherlink.com 1.10,2013-07-30 17:06:00,
2013-07-30 13:21:00,79.3,66.0,30.14,West,262,0.0,2.0,64,0.00,,,0.00,592,weatherlink.com 1.10,2013-07-30 17:21:00,
2013-07-30 13:36:00,80.3,66.0,30.14,West,262,0.0,1.0,61,0.00,,,0.00,752,weatherlink.com 1.10,2013-07-30 17:36:00,
2013-07-30 13:51:00,81.1,64.0,30.13,WNW,298,1.0,3.0,57,0.00,,,0.00,668,weatherlink.com 1.10,2013-07-30 17:51:00,
2013-07-30 14:06:00,80.7,68.0,30.13,NW,310,0.0,2.0,65,0.00,,,0.00,747,weatherlink.com 1.10,2013-07-30 18:06:00,
2013-07-30 14:21:00,81.2,63.0,30.12,WNW,294,2.0,2.0,54,0.00,,,0.00,844,weatherlink.com 1.10,2013-07-30 18:21:00,
2013-07-30 14:36:00,81.6,63.0,30.12,WNW,294,0.0,0.0,53,0.00,,,0.00,789,weatherlink.com 1.10,2013-07-30 18:36:00,
2013-07-30 14:51:00,82.7,62.0,30.12,WNW,294,1.0,2.0,49,0.00,,,0.00,733,weatherlink.com 1.10,2013-07-30 18:51:00,
2013-07-30 15:06:00,83.3,60.0,30.11,WNW,294,0.0,3.0,45,0.00,,,0.00,905,weatherlink.com 1.10,2013-07-30 19:06:00,
2013-07-30 15:21:00,83.4,66.0,30.11,WNW,298,0.0,2.0,55,0.00,,,0.00,856,weatherlink.com 1.10,2013-07-30 19:21:00,
2013-07-30 15:36:00,83.2,62.0,30.10,WNW,298,0.0,3.0,49,0.00,,,0.00,779,weatherlink.com 1.10,2013-07-30 19:36:00,
2013-07-30 15:51:00,84.0,59.0,30.10,WNW,298,0.0,2.0,43,0.00,,,0.00,649,weatherlink.com 1.10,2013-07-30 19:51:00,
2013-07-30 16:21:00,84.0,64.0,30.09,SW,214,0.0,1.0,51,0.00,,,0.00,759,weatherlink.com 1.10,2013-07-30 20:21:00,
2013-07-30 16:36:00,83.5,67.0,30.09,SW,214,0.0,1.0,58,0.00,,,0.00,689,weatherlink.com 1.10,2013-07-30 20:36:00,
2013-07-30 16:51:00,84.1,67.0,30.09,WSW,248,0.0,2.0,56,0.00,,,0.00,522,weatherlink.com 1.10,2013-07-30 20:51:00,
2013-07-30 17:07:00,84.4,66.0,30.08,WSW,247,0.0,3.0,54,0.00,,,0.00,610,weatherlink.com 1.10,2013-07-30 21:07:00,
2013-07-30 17:22:00,84.7,66.0,30.08,WSW,247,0.0,2.0,53,0.00,,,0.00,531,weatherlink.com 1.10,2013-07-30 21:22:00,
2013-07-30 17:37:00,84.3,66.0,30.08,WSW,247,1.0,2.0,54,0.00,,,0.00,265,weatherlink.com 1.10,2013-07-30 21:37:00,
2013-07-30 17:52:00,81.6,67.0,30.08,WSW,247,1.0,2.0,61,0.00,,,0.00,323,weatherlink.com 1.10,2013-07-30 21:52:00,
2013-07-30 18:21:00,78.7,67.0,30.07,WSW,246,2.0,3.0,68,0.00,,,0.00,148,weatherlink.com 1.10,2013-07-30 22:21:00,
2013-07-30 18:37:00,77.3,64.0,30.07,WSW,246,2.0,3.0,63,0.00,,,0.00,102,weatherlink.com 1.10,2013-07-30 22:37:00,
2013-07-30 18:51:00,76.3,63.0,30.07,WSW,244,2.0,3.0,64,0.00,,,0.00,79,weatherlink.com 1.10,2013-07-30 22:51:00,
2013-07-30 19:06:00,75.7,62.0,30.07,WSW,244,1.0,2.0,63,0.00,,,0.00,70,weatherlink.com 1.10,2013-07-30 23:06:00,
2013-07-30 19:37:00,75.8,62.0,30.07,WSW,244,1.0,1.0,63,0.00,,,0.00,84,weatherlink.com 1.10,2013-07-30 23:37:00,
2013-07-30 19:52:00,74.9,61.0,30.07,WSW,244,2.0,2.0,63,0.00,,,0.00,37,weatherlink.com 1.10,2013-07-30 23:52:00,
2013-07-30 20:07:00,74.3,64.0,30.07,WSW,244,0.0,2.0,71,0.00,,,0.00,16,weatherlink.com 1.10,2013-07-31 00:07:00,
2013-07-30 20:22:00,74.2,65.0,30.07,WSW,244,0.0,1.0,74,0.00,,,0.00,7,weatherlink.com 1.10,2013-07-31 00:22:00,
2013-07-30 20:37:00,73.8,67.0,30.07,WSW,244,0.0,0.0,78,0.00,,,0.00,0,weatherlink.com 1.10,2013-07-31 00:37:00,
2013-07-30 20:52:00,73.3,66.0,30.07,WSW,244,0.0,0.0,79,0.00,,,0.00,0,weatherlink.com 1.10,2013-07-31 00:52:00,
2013-07-30 21:07:00,72.4,66.0,30.08,WSW,243,0.0,0.0,81,0.00,,,0.00,0,weatherlink.com 1.10,2013-07-31 01:07:00,
2013-07-30 21:22:00,71.6,67.0,30.08,WSW,244,0.0,0.0,84,0.00,,,0.00,0,weatherlink.com 1.10,2013-07-31 01:22:00,
2013-07-30 21:37:00,71.1,66.0,30.09,WSW,244,0.0,1.0,84,0.00,,,0.00,0,weatherlink.com 1.10,2013-07-31 01:37:00,
2013-07-30 21:52:00,70.6,66.0,30.09,WSW,244,0.0,0.0,85,0.00,,,0.00,0,weatherlink.com 1.10,2013-07-31 01:52:00,
2013-07-30 22:07:00,70.4,66.0,30.10,WSW,243,0.0,0.0,87,0.00,,,0.00,0,weatherlink.com 1.10,2013-07-31 02:07:00,
2013-07-30 22:22:00,69.8,66.0,30.10,WSW,243,0.0,0.0,88,0.00,,,0.00,0,weatherlink.com 1.10,2013-07-31 02:22:00,
2013-07-30 22:37:00,69.4,66.0,30.10,WSW,243,0.0,0.0,89,0.00,,,0.00,0,weatherlink.com 1.10,2013-07-31 02:37:00,
2013-07-30 22:52:00,69.0,66.0,30.10,WSW,244,0.0,0.0,90,0.00,,,0.00,0,weatherlink.com 1.10,2013-07-31 02:52:00,
2013-07-30 23:07:00,69.0,66.0,30.10,WSW,243,0.0,0.0,91,0.00,,,0.00,0,weatherlink.com 1.10,2013-07-31 03:07:00,
2013-07-30 23:22:00,69.4,66.0,30.10,WSW,244,0.0,0.0,90,0.00,,,0.00,0,weatherlink.com 1.10,2013-07-31 03:22:00,
2013-07-30 23:37:00,69.1,66.0,30.10,WSW,244,0.0,0.0,91,0.00,,,0.00,0,weatherlink.com 1.10,2013-07-31 03:37:00,
2013-07-30 23:52:00,68.8,66.0,30.09,WSW,244,0.0,1.0,91,0.00,,,0.00,0,weatherlink.com 1.10,2013-07-31 03:52:00,